2023/01/24 00:00:00, 0.0, 2.3
2023/01/24 00:10:00, 0.0, 2.3
2023/01/24 00:20:00, 0.0, 2.2
2023/01/24 00:30:00, 0.0, 2.6
2023/01/24 00:40:00, 0.0, 2.1
2023/01/24 00:50:00, 0.0, 2.0
2023/01/24 01:00:00, 0.0, 2.1
2023/01/24 01:10:00, 0.0, 2.0
2023/01/24 01:20:00, 0.0, 2.1
2023/01/24 01:30:00, 0.0, 2.3
2023/01/24 01:40:00, 0.0, 2.2
2023/01/24 01:50:00, 0.0, 1.6
2023/01/24 02:00:00, 0.0, 1.5
2023/01/24 02:10:00, 0.0, 1.5
2023/01/24 02:20:00, 0.0, 1.7
2023/01/24 02:30:00, 0.0, 1.4
2023/01/24 02:40:00, 0.0, 1.3
2023/01/24 02:50:00, 0.0, 1.1
2023/01/24 03:00:00, 0.0, 1.0
2023/01/24 03:10:00, 0.0, 1.0
2023/01/24 03:20:00, 0.0, 1.1
2023/01/24 03:30:00, 0.0, 1.0
2023/01/24 03:40:00, 0.0, 1.1
2023/01/24 03:50:00, 0.0, 1.0
2023/01/24 04:00:00, 0.0, 0.9
2023/01/24 04:10:00, 0.0, 0.6
2023/01/24 04:20:00, 0.0, 0.6
2023/01/24 04:30:00, 0.0, 0.5
2023/01/24 04:40:00, 0.0, 0.4
2023/01/24 04:50:00, 0.0, 0.4
2023/01/24 05:00:00, 0.0, 0.7
2023/01/24 05:10:00, 0.0, 0.9
2023/01/24 05:20:00, 0.0, 0.9
2023/01/24 05:30:00, 0.0, 1.2
2023/01/24 05:40:00, 0.0, 1.2
2023/01/24 05:50:00, 0.0, 1.4
2023/01/24 06:00:00, 0.0, 1.8
2023/01/24 06:10:00, 0.0, 1.7
2023/01/24 06:20:00, 0.0, 1.8
2023/01/24 06:30:00, 0.0, 1.9
2023/01/24 06:40:00, 0.0, 1.9
2023/01/24 06:50:00, 0.0, 2.1
2023/01/24 07:00:00, 0.0, 1.9
2023/01/24 07:10:00, 0.0, 1.8
2023/01/24 07:20:00, 0.0, 2.0
2023/01/24 07:30:00, 0.0, 1.7
2023/01/24 07:40:00, 0.0, 1.3
2023/01/24 07:50:00, 0.0, 1.2
2023/01/24 08:00:00, 0.0, 1.3
2023/01/24 08:10:00, 0.0, 1.3
2023/01/24 08:20:00, 0.0, 1.1
2023/01/24 08:30:00, 0.0, 1.0
2023/01/24 08:40:00, 0.0, 0.7
2023/01/24 08:50:00, 0.0, 0.7
2023/01/24 09:00:00, 0.0, 0.3
2023/01/24 09:10:00, 0.0, 0.4
2023/01/24 09:20:00, 0.0,-0.3
2023/01/24 09:30:00, 0.0, 0.1
2023/01/24 09:40:00, 0.2, 0.2
2023/01/24 09:50:00, 0.4, 0.3
2023/01/24 10:00:00, 0.9, 0.5
2023/01/24 10:10:00, 0.9, 0.3
2023/01/24 10:20:00, 1.4, 0.4
2023/01/24 10:30:00, 1.7, 0.2
2023/01/24 10:40:00, 2.4, 0.0
2023/01/24 10:50:00, 3.4,-0.2
2023/01/24 11:00:00, 4.7, 0.1
2023/01/24 11:10:00, 5.9, 0.3
2023/01/24 11:20:00, 6.8, 1.8
2023/01/24 11:30:00, 6.8, 3.1
2023/01/24 11:40:00,11.2, 4.8
2023/01/24 11:50:00,12.5, 2.0
2023/01/24 12:00:00,12.7, 1.2
2023/01/24 12:10:00,13.1, 0.1
2023/01/24 12:20:00,13.2, 0.1
2023/01/24 12:30:00,13.2,-0.1
2023/01/24 12:40:00,13.0, 2.6
2023/01/24 12:50:00,12.6, 3.5
2023/01/24 13:00:00,12.4, 2.8
2023/01/24 13:10:00,12.5, 1.2
2023/01/24 13:20:00,12.2, 2.9
2023/01/24 13:30:00,12.0, 4.1
2023/01/24 13:40:00,12.0, 6.0
2023/01/24 13:50:00,12.0, 6.7
2023/01/24 14:00:00,12.0, 5.0
2023/01/24 14:10:00,11.6, 3.9
2023/01/24 14:20:00,10.9, 1.1
2023/01/24 14:30:00,10.5, 2.5
2023/01/24 14:40:00,10.4,-0.7
2023/01/24 14:50:00,10.5,-1.6
2023/01/24 15:00:00,10.6,-3.2
2023/01/24 15:10:00,10.8,-3.3
2023/01/24 15:20:00,11.6,-3.3
2023/01/24 15:30:00,13.7,-3.4
2023/01/24 15:40:00,16.2,-3.0
2023/01/24 15:50:00,17.3,-3.2
2023/01/24 16:00:00,18.4,-3.2
2023/01/24 16:10:00,20.0,-3.3
2023/01/24 16:20:00,22.0,-3.5
2023/01/24 16:30:00,23.7,-3.8
2023/01/24 16:40:00,25.7,-3.8
2023/01/24 16:50:00,27.0,-3.7
2023/01/24 17:00:00,28.3,-3.8
2023/01/24 17:10:00,29.4,-4.0
2023/01/24 17:20:00,30.2,-3.8
2023/01/24 17:30:00,31.3,-4.2
2023/01/24 17:40:00,33.1,-4.3
2023/01/24 17:50:00,36.2,-4.1
2023/01/24 18:00:00,38.6,-3.8
2023/01/24 18:10:00,40.7,-3.9
2023/01/24 18:20:00,42.3,-3.7
2023/01/24 18:30:00,43.8,-3.7
2023/01/24 18:40:00,45.3,-3.7
2023/01/24 18:50:00,46.9,-3.9
2023/01/24 19:00:00,48.5,-3.8
2023/01/24 19:10:00,49.8,-3.8
2023/01/24 19:20:00,51.1,-4.0
2023/01/24 19:30:00,52.1,-4.2
2023/01/24 19:40:00,52.8,-4.3
2023/01/24 19:50:00,53.9,-4.1
2023/01/24 20:00:00,56.4,-4.1
2023/01/24 20:10:00,57.8,-4.1
2023/01/24 20:20:00,58.7,-4.3
2023/01/24 20:30:00,59.1,-4.3
2023/01/24 20:40:00,59.1,-4.2
2023/01/24 20:50:00,59.0,-4.2
2023/01/24 21:00:00,59.1,-4.3
2023/01/24 21:10:00,59.5,-4.4
2023/01/24 21:20:00,60.0,-4.3
2023/01/24 21:30:00,60.4,-4.4
2023/01/24 21:40:00,61.3,-4.5
2023/01/24 21:50:00,62.0,-4.7
2023/01/24 22:00:00,62.5,-4.4
2023/01/24 22:10:00,62.8,-4.7
2023/01/24 22:20:00,63.3,-4.6
2023/01/24 22:30:00,64.2,-4.8
2023/01/24 22:40:00,65.6,-4.8
2023/01/24 22:50:00,66.2,-4.7
2023/01/24 23:00:00,66.4,-5.0
2023/01/24 23:10:00,66.7,-5.1
2023/01/24 23:20:00,67.1,-5.1
2023/01/24 23:30:00,67.6,-5.0
2023/01/24 23:40:00,68.4,-5.1
2023/01/24 23:50:00,69.1,-5.2
